DMSP 5D-2 F13 DEB, 40437

Orbit data source: Space-Track

DMSP 5D-2 F13 DEB, 40437 is space debris in SSO originally from a launch on Fri, 24 Mar 1995 UTC launched from the Air Force Western Test Range (AFWTR). Debris objects in space refer to the collection of defunct objects orbiting the Earth. Examples of debris include non-operational satellites, rocket bodies, and fragments generated from explosions, collisions, or faulty payload assembly.

Loading next visibility...
Identifier
40437, 1995-015AP
Orbit
SSO
Country
Flag of USUS
Related business
Manufacturer
Unknown
Mission
Spacecraft
Bus & Motor
Unknown
Mass
Unknown
Launch date (UTC)
1995-03-24 (30 years ago)
Launch vehicle
Unknown
Launch site
Air Force Western Test Range (AFWTR)
Object type
Payload
Rocket body
Debris
Shape & HBR
Unknown
Radar Cross Section
Small (<0.1 m²)

Expand to show TLE details & history
Last TLE update: 22 hours ago

TLE from 22 hours ago
0 DMSP 5D-2 F13 DEB
1 40437U 95015AP  25242.11084306  .00014105  00000-0  28540-2 0  9998
2 40437  98.6710 299.1053 0015409 252.4661 107.4855 14.61352117547327
Epoch: 2025-08-30T02:39Z
TLE epoch observation values (Epoch: 2025-08-30T02:39:36.84Z)
Latitude
-0°
Longitude
-79.34804°
Altitude
695.071 km
Speed
7.507 km/s
True Right ascension
19h 56m 25s
True Declination
0° 00' 00"
Sunlit
Object was in full shadow at epoch
Visualization orbit readout
Latitude
Unknown
Longitude
Unknown
Altitude
Unknown
Speed
Unknown
Apparent Right ascension
Unknown
Apparent Declination
Unknown
Sunlit
N/A
Visualization observer readout
Local Sidereal Time
16:41:35
Azimuth
Unknown
Elevation
Unknown
Doppler factor
Unknown
Orbital elements
Apogee altitude
696.798 km
Perigee altitude
675.028 km
Semi-major axis
7,064.05 km
Eccentricity
0.00154
Inclination
98.671°
RAAN
299.1053°
Arg. of periapsis
252.4661°
True anomaly
107.65382°
Mean anomaly
107.4855°
Eccentric anomaly
107.56967°
Mean motion
3.65563 °/min
Orbital period
98.48 mins
BSTAR
0.002854
Loading maneuver chart data...
Computing Atmospheric mass density...

Documentation

Showing up to 5 results
|